Temperature
11 11 11 11 12 12 12 12 13 13 13 13 13 13 13 13 13 13 13 14 14 14 14 14 14 14 15 15 15 15 15 15 15 15 15 15 15 15 15 15 15 15 15
10 11 11 11 11 12 12 12 12 13 13 13 13 13 13 13 13 13 13 13 13 14 14 14 14 14 14 14 15 15 14 14 14 14 14 14 15 15 14 15 15 15 15
10 10 11 11 11 11 12 12 12 12 12 13 13 13 13 13 13 13 13 13 13 13 13 14 14 14 14 14 14 14 14 14 14 14 14 14 14 14 14 14 14 15 15
10 10 10 10 11 11 11 11 12 12 12 12 12 13 13 13 13 13 13 13 13 13 13 13 14 14 14 14 14 14 14 14 14 14 14 14 14 14 14 14 14 14 14
9 10 10 10 11 11 11 11 11 11 12 12 12 12 12 12 12 13 13 13 13 13 13 13 13 13 14 14 14 14 14 13 13 13 13 14 14 14 14 14 14 14 14
9 10 10 10 10 11 11 11 11 11 11 12 12 12 12 12 12 12 12 12 12 13 13 13 13 13 13 13 13 14 13 13 13 13 13 13 13 13 14 14 14 14 14
9 9 10 10 10 10 10 11 10 11 11 11 11 11 12 12 12 12 12 12 12 12 12 12 13 13 13 13 13 13 13 13 13 13 13 13 13 13 13 13 13 13 14
8 9 9 9 10 10 10 10 10 10 11 11 11 11 11 11 11 11 12 12 12 12 12 12 12 12 13 13 13 13 13 13 12 12 12 12 13 13 13 13 13 13 13
8 8 9 9 9 9 10 10 10 10 10 10 10 11 11 11 11 11 11 11 11 12 12 12 12 12 12 12 12 12 12 12 12 12 12 12 12 12 12 13 13 13 13
8 8 8 9 9 9 9 9 9 10 10 10 10 10 10 10 11 11 11 11 11 11 11 12 12 12 12 12 12 12 12 12 12 12 12 12 12 12 12 12 12 12 12
7 8 8 8 8 8 8 9 9 9 9 9 10 10 10 10 10 10 10 11 11 11 11 11 11 11 11 12 12 11 11 11 11 11 11 11 11 11 12 12 12 12 12
7 7 7 8 8 8 8 8 8 8 9 9 9 9 9 10 10 10 10 10 10 10 10 11 11 11 11 11 11 11 11 11 11 11 11 11 11 11 11 11 11 11 11
6 6 7 7 7 7 7 8 8 8 8 8 8 9 9 9 9 9 9 9 10 10 10 10 10 10 11 11 11 11 11 11 11 11 11 11 11 11 11 11 11 11 11
6 6 6 6 7 7 7 7 7 7 7 8 8 8 8 8 9 9 9 9 9 9 9 9 10 10 10 10 10 10 10 10 10 10 10 10 11 11 11 11 10 10 11
5 5 6 6 6 6 6 6 6 7 7 7 7 7 7 8 8 8 8 8 8 8 8 9 9 9 9 9 9 9 10 10 10 10 10 10 10 10 10 10 10 10 10
5 5 5 5 5 6 6 6 6 6 6 6 6 6 7 7 7 7 7 7 8 8 8 8 8 8 8 9 9 9 9 9 9 9 9 9 9 10 10 10 10 10 10
4 4 5 5 5 5 5 5 5 5 5 6 6 6 6 6 6 6 7 7 7 7 7 7 7 7 8 8 8 8 8 8 8 8 9 9 9 9 9 9 9 9 9
4 4 4 4 4 4 4 5 5 5 5 5 5 5 5 5 5 6 6 6 6 6 6 6 7 7 7 7 7 8 8 8 8 8 8 8 8 8 8 8 9 9 9
4 4 4 4 4 4 4 4 4 4 4 4 4 5 5 5 5 5 5 5 5 5 6 6 6 6 6 6 7 7 7 7 7 7 7 7 7 7 7 8 8 8 8
3 3 3 3 3 3 3 3 3 4 4 4 4 4 4 4 4 4 4 4 5 5 5 5 5 5 5 5 6 6 6 6 6 6 6 6 6 6 7 7 7 7 7
3 3 3 3 3 3 3 3 3 3 3 3 3 3 3 3 3 4 4 4 4 4 4 4 4 4 4 4 5 5 6 5 5 5 5 6 6 6 6 6 6 6 7
3 3 3 2 3 3 3 3 2 2 2 2 3 3 3 3 3 3 3 3 3 3 3 3 3 3 3 3 3 3 4 4 4 5 5 5 5 5 5 5 5 6 6
2 2 2 2 2 2 2 2 2 2 2 2 2 2 2 2 2 2 2 2 2 2 2 2 2 2 2 3 2 2 2 2 3 3 3 3 4 4 4 4 4 5 5
2 2 2 2 2 2 2 2 2 1 1 1 1 1 1 1 1 1 1 1 1 1 1 1 1 1 1 2 2 1 1 1 1 1 2 2 3 3 3 3 3 4 4
1 2 1 1 1 1 1 1 1 1 1 1 0 0 0 0 1 0 0 0 0 0 0 1 1 1 1 1 1 1 1 1 1 0 0 1 2 2 2 2 3 3 3
1 1 1 1 1 1 1 1 1 0 0 0 -0 -0 -0 -0 -0 -0 -0 -0 -0 -0 -0 -0 -0 0 -0 -0 -0 -0 -0 -0 -0 -0 -0 -0 0 1 1 1 2 2 2
Wind_Speed
5 9 12 13 14 13 14 15 15 15 15 15 15 16 16 16 16 16 16 15 14 15 15 14 14 14 15 15 15 15 14 14 13 13 14 14 14 15 15 15 15 14 15
5 8 11 13 14 14 14 15 15 15 16 16 15 16 15 15 15 15 15 15 15 14 15 14 14 14 14 14 14 14 13 12 12 12 12 13 14 15 15 16 15 13 14
7 9 10 13 14 15 15 15 15 15 15 16 16 15 15 15 15 15 15 15 15 14 14 14 14 14 13 13 13 13 12 11 11 10 10 11 12 14 15 15 15 14 14
8 9 10 13 14 15 15 15 15 15 15 15 15 15 15 15 15 15 15 15 15 15 14 14 14 14 13 13 12 12 11 10 10 9 10 11 12 13 14 14 13 13 13
10 11 11 13 14 15 15 15 15 15 15 15 15 15 15 15 15 15 15 15 15 15 15 14 14 14 14 13 12 12 11 10 9 9 10 12 12 12 13 13 13 12 12
10 11 11 13 14 14 15 15 16 15 14 15 15 15 15 15 15 15 15 15 15 15 15 14 14 14 13 13 12 11 11 11 9 9 11 12 11 11 11 11 12 11 11
9 11 11 13 14 14 15 16 16 16 16 15 15 15 15 15 14 14 15 15 14 14 14 14 13 13 13 12 12 11 12 12 9 10 12 13 11 10 10 10 10 10 10
8 10 11 12 13 14 15 15 15 16 16 15 15 14 15 15 15 14 15 14 14 14 13 13 12 12 12 12 12 11 12 11 9 10 12 12 12 10 9 9 8 9 9
9 9 10 10 11 13 14 15 15 15 15 15 15 14 14 14 14 14 14 14 13 13 13 13 12 11 10 11 11 11 11 12 11 10 11 11 11 11 10 9 8 8 8
8 9 10 10 11 11 11 13 14 15 15 15 14 14 13 13 13 14 14 13 13 12 12 12 12 11 9 9 9 10 10 10 11 11 10 10 11 11 10 9 8 8 7
6 7 9 9 10 10 9 10 11 12 14 14 13 14 13 12 11 12 12 13 12 12 12 12 11 11 9 8 8 9 9 8 10 9 9 10 10 10 10 9 8 7 7
5 5 7 8 8 9 9 9 9 10 12 13 13 14 13 12 11 10 11 12 12 12 11 11 11 11 10 8 8 8 8 8 8 8 9 10 10 10 10 10 9 8 6
4 5 5 7 8 8 8 8 9 9 11 12 14 13 12 12 11 11 11 11 12 12 12 11 10 10 10 8 8 7 7 7 7 7 7 9 9 10 9 9 9 8 6
4 4 4 6 7 8 8 7 8 8 10 10 12 13 12 10 10 11 10 11 11 11 11 11 9 10 9 8 7 7 7 6 6 6 7 8 9 9 9 9 8 8 7
4 4 3 5 6 7 7 7 8 8 9 10 11 12 12 10 9 10 10 11 11 11 10 9 9 9 8 8 7 7 6 6 5 5 5 7 8 8 8 8 8 7 7
4 3 3 4 6 6 6 6 7 7 8 9 10 12 12 11 10 9 9 9 10 11 10 9 9 8 6 6 6 6 6 5 5 5 5 5 6 6 7 7 7 7 7
4 3 3 4 5 6 6 6 6 7 8 8 9 11 11 11 10 9 8 8 10 11 10 9 9 8 6 6 4 5 5 5 4 4 5 5 5 5 7 7 7 7 7
4 4 3 4 4 5 6 6 6 7 7 8 9 10 12 11 10 9 8 7 10 10 9 6 5 4 5 5 4 3 4 4 4 3 4 4 5 5 6 6 6 7 7
4 4 3 4 4 4 5 5 6 6 7 8 9 9 10 11 11 9 8 9 10 8 7 6 5 4 4 5 5 3 2 2 3 3 3 4 5 6 6 7 7 7 7
4 4 4 4 3 3 3 3 4 5 6 8 8 9 9 10 11 9 8 9 9 6 5 5 5 4 4 4 5 4 3 2 1 2 3 4 5 6 7 7 7 6 7
4 4 3 3 2 2 2 2 2 2 2 4 6 8 9 9 9 9 8 7 8 5 4 4 4 5 4 4 3 3 3 1 1 2 3 3 4 6 7 7 7 6 6
5 4 3 3 2 2 2 1 1 1 1 2 4 6 8 9 9 8 8 7 7 5 5 5 4 4 3 4 3 2 2 2 2 2 2 1 2 5 6 6 7 7 6
5 4 3 3 3 2 2 2 2 2 2 2 3 3 6 7 8 8 8 7 7 5 4 4 4 4 3 3 3 2 1 1 3 2 2 1 1 2 3 5 6 6 6
5 4 4 4 3 2 2 2 2 1 1 2 1 2 4 5 6 7 7 7 6 5 4 4 4 3 3 3 2 2 2 1 1 2 2 1 2 2 2 5 5 6 6
5 5 4 4 3 2 2 2 1 1 1 1 1 2 3 4 5 6 6 6 6 5 5 6 4 3 3 3 3 3 3 3 2 3 4 3 3 2 2 4 4 5 6
5 4 4 4 3 2 2 1 1 1 1 1 2 2 2 2 3 5 5 6 6 5 5 5 5 4 3 4 4 3 3 2 3 2 4 5 5 3 4 4 3 4 6
Wind_Direction
38 27 17 17 28 34 38 39 40 41 43 45 46 45 44 43 45 45 44 45 49 50 50 52 54 55 55 55 55 55 54 54 56 60 61 60 60 60 59 59 64 63 68
43 38 25 28 35 38 41 41 41 42 43 43 45 45 44 43 45 46 44 43 47 49 49 50 51 53 55 55 54 52 50 49 51 55 61 60 59 59 59 59 63 65 67
48 47 35 35 39 41 41 42 42 43 44 43 43 43 43 43 44 44 44 43 46 48 48 48 48 51 54 55 53 49 44 41 41 50 59 63 64 61 61 62 63 64 65
54 53 43 40 42 43 42 42 42 43 44 43 41 42 43 43 44 45 45 44 45 46 48 48 49 52 53 53 50 46 39 36 33 43 58 61 61 61 61 60 61 61 62
60 57 47 45 46 45 44 43 42 43 43 42 40 40 41 42 44 46 44 45 45 45 47 48 50 51 51 50 48 42 35 28 29 43 56 63 61 62 61 59 59 59 59
60 59 51 49 48 47 45 44 42 42 42 42 42 41 40 41 43 45 44 45 46 44 44 46 48 49 49 46 43 37 29 24 24 47 57 60 58 60 60 58 57 60 60
59 59 57 52 49 47 46 44 41 40 40 41 43 42 41 41 44 45 44 44 44 43 44 44 45 48 47 43 39 34 25 19 30 51 58 57 54 58 59 58 57 59 60
61 63 61 54 51 47 45 43 42 40 39 40 41 41 41 40 41 43 42 42 42 42 41 41 43 45 45 41 36 30 22 20 30 47 56 51 49 52 54 54 57 58 59
60 59 61 57 52 47 44 42 41 40 39 38 38 37 38 38 39 41 39 39 40 41 40 39 40 41 43 39 33 27 22 21 31 43 52 47 45 45 47 47 49 56 56
58 53 52 50 47 47 45 43 42 40 38 36 34 32 33 35 37 38 35 35 37 38 38 36 35 35 38 36 30 24 20 22 36 38 45 44 44 40 44 45 44 51 52
56 49 48 44 42 41 46 43 40 38 34 31 29 24 26 28 32 35 30 30 31 32 32 30 30 28 28 27 24 20 20 24 41 41 43 45 45 40 38 39 37 41 49
62 50 44 41 38 38 39 38 36 36 31 29 26 23 25 24 22 29 26 26 25 26 24 23 25 25 22 19 17 20 17 26 46 44 44 46 44 38 33 30 29 32 42
79 60 47 40 38 41 35 35 34 33 32 29 24 22 22 21 19 22 24 19 18 21 17 13 17 18 17 17 16 12 12 26 44 44 47 48 43 36 32 28 25 24 32
89 72 51 42 39 40 40 38 36 32 31 29 22 22 22 19 19 16 20 17 17 15 11 9 8 8 8 10 11 8 14 22 38 42 45 48 41 33 28 26 23 19 20
97 82 63 45 41 41 41 39 38 34 33 31 25 21 22 22 17 14 14 17 15 10 9 5 2 3 4 6 6 8 13 21 36 42 43 44 38 30 24 21 18 15 12
105 96 81 64 49 45 46 42 40 36 35 33 28 22 21 23 19 16 13 13 12 5 2 3 357 358 358 0 357 0 7 14 31 36 42 36 34 29 22 17 15 13 10
112 98 84 78 55 50 51 46 44 39 39 34 27 22 22 23 20 18 15 11 7 2 360 359 357 0 359 358 353 351 0 7 20 30 39 32 30 30 21 13 12 11 8
111 105 93 80 66 52 50 48 48 44 41 37 28 24 22 20 19 18 16 8 4 4 2 355 357 359 357 352 344 333 344 358 8 28 37 40 38 31 22 17 16 10 4
117 112 102 89 80 67 59 53 53 48 43 39 31 25 21 19 16 17 14 7 3 5 5 359 357 360 353 350 336 326 338 351 356 21 39 40 41 36 30 26 18 13 9
123 120 113 103 92 80 73 66 57 48 40 37 30 24 20 18 14 15 12 8 5 5 7 6 356 356 353 344 330 327 316 297 359 40 37 45 39 35 34 28 20 16 14
128 125 117 110 106 94 87 71 57 35 25 26 28 22 18 15 13 14 10 4 5 3 2 1 358 350 353 346 338 330 318 318 50 59 37 33 35 31 28 23 19 14 5
147 138 125 116 102 82 72 59 72 63 35 32 28 23 17 14 12 11 11 3 0 356 355 360 360 349 343 360 348 327 335 335 0 346 356 2 25 28 19 7 7 2 357
152 149 144 130 113 90 66 71 69 53 29 20 12 11 11 8 9 8 5 2 357 354 347 346 357 358 335 336 360 358 357 308 328 294 270 331 20 7 356 354 352 349 343
155 143 136 134 126 106 86 101 95 60 13 347 349 344 351 4 9 6 2 358 355 353 344 337 353 341 330 315 318 322 297 293 287 306 293 295 319 320 329 333 330 327 326
144 141 141 137 128 116 103 109 102 76 43 11 356 345 346 358 7 2 359 355 352 348 344 338 335 334 321 307 303 304 302 301 266 259 283 297 302 285 292 308 304 304 307
140 139 142 143 139 133 132 128 122 105 51 5 345 343 339 339 352 356 355 352 344 339 337 331 325 315 309 307 305 294 287 277 282 275 276 289 292 287 290 284 284 291 291
Height
1545 1544 1543 1543 1543 1543 1542 1542 1541 1541 1541 1541 1540 1540 1539 1539 1539 1539 1538 1538 1538 1538 1538 1538 1538 1538 1538 1539 1539 1539 1540 1540 1540 1540 1540 1541 1540 1540 1541 1541 1541 1541 1541
1544 1544 1543 1543 1543 1543 1543 1542 1542 1542 1542 1541 1541 1541 1540 1540 1540 1540 1539 1539 1539 1539 1539 1539 1540 1540 1540 1540 1540 1541 1541 1541 1542 1542 1542 1542 1542 1542 1542 1542 1542 1543 1543
1543 1543 1543 1543 1543 1543 1543 1543 1542 1542 1542 1542 1541 1541 1541 1541 1541 1541 1541 1540 1540 1540 1540 1540 1540 1540 1541 1541 1541 1542 1542 1543 1543 1543 1543 1543 1543 1543 1544 1544 1544 1544 1544
1543 1543 1543 1543 1543 1543 1543 1543 1542 1542 1542 1542 1542 1541 1541 1541 1541 1541 1541 1541 1541 1541 1541 1541 1541 1541 1541 1542 1542 1543 1543 1544 1544 1544 1544 1544 1544 1545 1545 1545 1545 1545 1546
1543 1543 1543 1543 1543 1543 1543 1543 1542 1542 1542 1542 1542 1542 1542 1542 1541 1541 1541 1541 1541 1541 1542 1542 1542 1542 1542 1543 1543 1543 1544 1544 1545 1545 1545 1545 1545 1546 1546 1546 1546 1546 1546
1542 1542 1543 1543 1543 1543 1543 1543 1542 1542 1542 1542 1542 1542 1542 1542 1542 1541 1541 1541 1542 1542 1542 1542 1543 1543 1543 1543 1544 1544 1545 1545 1545 1546 1546 1546 1546 1546 1546 1546 1547 1547 1547
1542 1542 1543 1543 1543 1543 1543 1543 1542 1542 1542 1542 1542 1542 1542 1542 1542 1542 1542 1542 1542 1542 1543 1543 1543 1543 1543 1544 1544 1545 1545 1546 1546 1546 1546 1546 1546 1547 1547 1547 1547 1547 1548
1542 1542 1542 1543 1543 1543 1543 1543 1542 1542 1542 1542 1542 1542 1542 1542 1542 1542 1542 1542 1542 1542 1543 1543 1543 1543 1544 1544 1544 1545 1545 1546 1546 1546 1546 1546 1547 1547 1546 1547 1547 1547 1547
1541 1542 1542 1542 1542 1543 1542 1542 1542 1542 1542 1542 1542 1542 1541 1542 1541 1542 1542 1542 1542 1542 1542 1543 1543 1543 1544 1544 1545 1545 1545 1546 1546 1546 1546 1546 1546 1546 1546 1546 1547 1547 1547
1541 1541 1541 1542 1542 1542 1542 1542 1542 1542 1541 1541 1541 1541 1541 1541 1541 1541 1541 1541 1542 1542 1542 1542 1543 1543 1543 1544 1544 1545 1545 1546 1546 1546 1546 1546 1546 1546 1546 1546 1546 1547 1547
1540 1541 1541 1541 1541 1541 1541 1541 1541 1541 1541 1540 1540 1541 1541 1540 1540 1540 1541 1541 1541 1541 1541 1541 1542 1542 1543 1543 1544 1544 1545 1545 1545 1545 1545 1545 1545 1545 1545 1545 1546 1546 1546
1539 1540 1540 1540 1540 1540 1540 1540 1540 1540 1540 1540 1540 1540 1540 1540 1540 1539 1540 1540 1540 1540 1540 1541 1541 1541 1542 1542 1543 1543 1544 1544 1544 1544 1545 1545 1545 1544 1544 1544 1545 1545 1545
1539 1539 1539 1540 1540 1540 1540 1539 1539 1539 1539 1539 1539 1539 1539 1539 1539 1539 1538 1538 1539 1539 1539 1539 1540 1540 1540 1541 1541 1542 1543 1543 1543 1543 1543 1544 1544 1544 1543 1543 1543 1544 1544
1538 1538 1538 1538 1539 1539 1539 1539 1538 1538 1538 1538 1538 1538 1538 1537 1537 1537 1537 1537 1537 1537 1537 1538 1538 1538 1539 1539 1540 1540 1541 1541 1542 1542 1542 1542 1542 1543 1542 1542 1543 1543 1543
1536 1537 1537 1537 1538 1538 1538 1538 1538 1537 1537 1537 1537 1537 1537 1536 1536 1536 1536 1536 1536 1536 1536 1536 1536 1536 1537 1537 1538 1538 1539 1539 1539 1540 1540 1540 1541 1541 1541 1541 1541 1541 1541
1535 1535 1536 1536 1537 1537 1537 1537 1537 1537 1537 1537 1536 1536 1536 1535 1535 1535 1535 1535 1534 1534 1534 1534 1534 1534 1535 1535 1535 1536 1537 1537 1537 1538 1538 1538 1538 1539 1539 1539 1539 1539 1540
1534 1534 1534 1535 1536 1536 1536 1536 1536 1536 1536 1536 1535 1535 1535 1534 1534 1533 1533 1533 1533 1532 1532 1533 1533 1532 1532 1533 1533 1533 1534 1534 1535 1535 1535 1536 1536 1536 1536 1536 1537 1537 1537
1532 1533 1533 1534 1534 1535 1535 1535 1535 1535 1535 1534 1534 1534 1534 1533 1533 1532 1532 1531 1531 1531 1530 1530 1530 1530 1530 1530 1530 1530 1531 1531 1532 1533 1533 1533 1533 1533 1534 1534 1534 1535 1535
1531 1531 1532 1533 1533 1533 1534 1534 1534 1534 1534 1533 1533 1533 1533 1532 1531 1531 1530 1530 1529 1529 1528 1528 1528 1528 1528 1527 1528 1528 1528 1529 1529 1530 1530 1531 1531 1531 1531 1531 1532 1532 1532
1529 1530 1531 1531 1531 1532 1532 1532 1533 1533 1532 1532 1532 1532 1531 1531 1530 1530 1529 1528 1527 1527 1527 1526 1526 1526 1525 1525 1525 1525 1525 1526 1526 1527 1528 1528 1528 1529 1529 1529 1529 1529 1529
1527 1528 1529 1529 1530 1530 1530 1530 1530 1530 1531 1531 1530 1530 1530 1529 1528 1528 1527 1526 1526 1525 1525 1524 1524 1523 1523 1523 1522 1521 1522 1523 1523 1524 1525 1525 1526 1526 1526 1526 1526 1526 1526
1525 1526 1527 1527 1528 1528 1529 1529 1529 1529 1529 1528 1528 1528 1528 1527 1526 1526 1525 1525 1524 1523 1522 1522 1521 1521 1521 1521 1521 1519 1519 1520 1520 1521 1522 1522 1522 1522 1523 1523 1523 1523 1523
1523 1524 1524 1525 1526 1527 1527 1527 1527 1527 1527 1526 1526 1526 1526 1525 1524 1524 1523 1522 1522 1521 1520 1519 1519 1518 1518 1519 1519 1520 1519 1517 1517 1517 1517 1518 1519 1518 1519 1519 1519 1519 1519
1521 1522 1523 1523 1524 1525 1525 1525 1525 1525 1524 1524 1524 1524 1523 1523 1522 1521 1521 1520 1519 1518 1518 1517 1517 1516 1516 1516 1517 1517 1518 1517 1516 1514 1514 1514 1515 1515 1515 1515 1515 1515 1515
1518 1519 1520 1521 1522 1523 1523 1523 1523 1523 1523 1522 1522 1521 1520 1520 1519 1518 1518 1517 1516 1516 1515 1514 1514 1514 1513 1513 1513 1513 1514 1514 1513 1512 1510 1510 1510 1510 1510 1510 1510 1510 1510
1516 1517 1518 1519 1520 1520 1521 1521 1521 1521 1520 1520 1519 1518 1518 1517 1516 1516 1515 1514 1513 1513 1512 1511 1510 1511 1510 1510 1510 1510 1510 1510 1509 1509 1507 1505 1504 1504 1505 1506 1505 1505 1505